Location: Newark
(15.4608°S, 41.1635°W)
Time: 18:46:23
(UTC+00:00)

S-56A Canister/Altair - All Passes

Search period start: 04 March 2021 00:00
Search period end: 14 March 2021 00:00
Orbit: 631 x 2501 km, 38.9° (Epoch: 03 March)

Date Brightness Start Highest point End Pass type
(mag) Time Alt. Az. Time Alt. Az. Time Alt. Az.
04 Mar - 00:23:42 10° N 00:30:02 21° NE 00:34:54 10° E visible
04 Mar - 02:27:22 10° NW 02:34:47 78° SW 02:39:55 10° SE night (unlit)
04 Mar - 04:37:00 10° SW 04:38:46 12° SSW 04:40:27 10° S night (unlit)
04 Mar - 08:50:34 10° SSE 08:51:41 11° SSE 08:52:51 10° SE daylight
04 Mar - 10:50:12 10° SW 10:56:10 56° SE 11:05:08 10° ENE daylight
04 Mar - 12:54:03 10° WSW 13:01:03 37° NW 13:11:07 10° NNE daylight
04 Mar - 23:50:51 10° N 23:57:02 19° NE 00:01:54 10° ENE visible
05 Mar - 01:54:01 10° NW 02:02:07 86° NE 02:07:34 10° SE night (unlit)
05 Mar - 04:02:47 10° WSW 04:06:02 15° SSW 04:08:55 10° S night (unlit)
05 Mar - 10:17:58 10° SW 10:23:27 45° SE 10:31:22 10° ENE daylight
05 Mar - 12:21:21 10° WSW 12:28:00 42° NW 12:37:48 10° NNE daylight
05 Mar - 23:18:04 10° N 23:23:57 17° NE 23:28:44 10° ENE visible
06 Mar - 01:20:38 10° NW 01:29:24 73° NE 01:35:11 10° ESE night (unlit)
06 Mar - 03:28:51 10° W 03:33:21 20° SW 03:37:03 10° SSE night (unlit)
06 Mar - 09:45:48 10° SSW 09:50:46 36° SE 09:57:37 10° ENE daylight
06 Mar - 11:48:44 10° WSW 11:55:03 47° NW 12:04:28 10° NNE daylight
06 Mar - 13:59:00 10° NW 14:01:15 11° NNW 14:03:40 10° NNW daylight
06 Mar - 22:45:24 10° N 22:50:48 15° NE 22:55:20 10° ENE visible
07 Mar - 00:47:14 10° NW 00:56:35 62° NE 01:02:44 10° ESE visible
07 Mar - 02:55:00 10° W 03:00:41 26° SW 03:05:03 10° SSE night (unlit)
07 Mar - 09:13:41 10° SSW 09:18:07 28° SE 09:23:53 10° E daylight
07 Mar - 11:16:12 10° WSW 11:22:10 55° NW 11:31:08 10° NE daylight
07 Mar - 13:24:39 10° NW 13:28:01 12° NNW 13:31:49 10° NNW daylight
07 Mar - 22:12:57 10° N 22:17:34 13° NE 22:21:36 10° ENE visible
08 Mar - 00:13:49 10° NW 00:23:43 53° NE 00:30:14 10° ESE visible
08 Mar - 02:21:09 10° W 02:27:59 33° SW 02:32:58 10° SSE night (unlit)
08 Mar - 08:41:39 10° SSW 08:45:28 22° SE 08:50:08 10° E daylight
08 Mar - 10:43:44 10° WSW 10:49:23 64° NW 10:57:49 10° NE daylight
08 Mar - 12:50:58 10° WNW 12:54:52 14° NW 12:59:27 10° N daylight
08 Mar - 21:40:56 10° NNE 21:44:15 11° NE 21:47:18 10° NE visible
08 Mar - 23:40:25 10° NNW 23:50:44 47° NE 23:57:39 10° ESE visible
09 Mar - 01:47:19 10° WNW 01:55:17 41° SW 02:00:49 10° SSE night (unlit)
09 Mar - 08:09:42 10° S 08:12:48 17° SSE 08:16:19 10° ESE visible
09 Mar - 10:11:19 10° WSW 10:16:39 77° NW 10:24:30 10° NE daylight
09 Mar - 12:17:37 10° WNW 12:21:48 16° NW 12:26:52 10° N daylight
09 Mar - 23:07:03 10° NNW 23:17:41 42° NE 23:25:00 10° ESE visible
10 Mar - 01:13:30 10° WNW 01:22:33 51° SW 01:28:36 10° SE visible
10 Mar - 07:37:58 10° S 07:40:05 13° SSE 07:42:21 10° ESE visible
10 Mar - 09:38:57 10° SW 09:44:00 88° SE 09:51:14 10° NE daylight
10 Mar - 11:44:29 10° WNW 11:48:48 18° NW 11:54:12 10° N daylight
10 Mar - 22:33:42 10° NNW 22:44:33 37° NE 22:52:13 10° ESE visible
11 Mar - 00:39:40 10° WNW 00:49:45 62° SW 00:56:19 10° SE visible
11 Mar - 02:51:10 10° WSW 02:54:19 13° SSW 02:57:04 10° S night (unlit)
11 Mar - 09:06:37 10° SW 09:11:25 70° SE 09:17:58 10° ENE daylight
11 Mar - 11:11:31 10° W 11:15:52 20° NW 11:21:27 10° N daylight
11 Mar - 22:00:23 10° NNW 22:11:20 33° NE 22:19:19 10° E visible
12 Mar - 00:05:51 10° WNW 00:16:52 74° SW 00:23:58 10° SE visible
12 Mar - 02:16:37 10° WSW 02:21:28 17° SSW 02:25:25 10° S night (unlit)
12 Mar - 08:34:19 10° SW 08:38:51 54° SE 08:44:44 10° ENE daylight
12 Mar - 10:38:40 10° W 10:43:02 23° NW 10:48:40 10° NNE daylight
12 Mar - 21:27:09 10° NNW 21:38:03 30° NE 21:46:17 10° E visible
12 Mar - 23:32:03 10° NW 23:43:54 85° SW 23:51:34 10° SE visible
13 Mar - 01:42:14 10° W 01:48:37 22° SSW 01:53:30 10° SSE visible
13 Mar - 08:02:02 10° SW 08:06:19 41° SE 08:11:31 10° ENE visible
13 Mar - 10:05:54 10° W 10:10:15 26° NW 10:15:54 10° NNE daylight
13 Mar - 20:54:01 10° NNW 21:04:41 27° NE 21:13:05 10° E daylight
13 Mar - 22:58:17 10° NW 23:10:51 84° NE 23:19:05 10° SE visible
